This is the latest recevied weather packets stored in our database for station/object KI4MRC. If no packets are shown the sender has not sent any weather packets the latest 10 day(s).
| Time | Temp. | Humidity | Pressure | Rain* | Wind** | Luminosity | Snow |
|---|---|---|---|---|---|---|---|
| 1777588911 | 29.44° C | 63% | 1009.5 hPa | 0 mm | - | 34 W/m² | - |
| 1777588607 | 29.44° C | 63% | 1009.7 hPa | 0 mm | - | 37 W/m² | - |
| 1777588302 | 30° C | 64% | 1009.5 hPa | 0 mm | - | 46 W/m² | - |
| 1777587998 | 30° C | 63% | 1009.6 hPa | 0 mm | - | 64 W/m² | - |
| 1777587694 | 30° C | 62% | 1009.6 hPa | 0 mm | - | 49 W/m² | - |
| 1777587394 | 30° C | 63% | 1009.7 hPa | 0 mm | - | 51 W/m² | - |
| 1777587090 | 30° C | 63% | 1009.8 hPa | 0 mm | - | 52 W/m² | - |
| 1777586787 | 30.56° C | 63% | 1009.7 hPa | 0 mm | - | 50 W/m² | - |
| 1777586482 | 30.56° C | 63% | 1009.6 hPa | 0 mm | - | 51 W/m² | - |
| 1777586177 | 30.56° C | 62% | 1009.8 hPa | 0 mm | - | 53 W/m² | - |
| 1777585875 | 30.56° C | 60% | 1009.7 hPa | 0 mm | - | 55 W/m² | - |
| 1777585570 | 31.11° C | 60% | 1009.5 hPa | 0 mm | - | 70 W/m² | - |
| 1777585266 | 31.67° C | 58% | 1009.7 hPa | 0 mm | - | 53 W/m² | - |
| 1777584961 | 32.22° C | 50% | 1009.5 hPa | 0 mm | - | 58 W/m² | - |
| 1777584658 | 32.22° C | 48% | 1009.5 hPa | 0 mm | - | 62 W/m² | - |
| 1777584350 | 32.22° C | 50% | 1009.5 hPa | 0 mm | - | 93 W/m² | - |
| 1777584046 | 32.22° C | 47% | 1009.4 hPa | 0 mm | - | 95 W/m² | - |
| 1777583746 | 32.22° C | 50% | 1009.5 hPa | 0 mm | - | 103 W/m² | - |
| 1777583445 | 31.67° C | 49% | 1009.6 hPa | 0 mm | - | 88 W/m² | - |
| 1777583145 | 32.22° C | 47% | 1009.7 hPa | 0 mm | - | 59 W/m² | - |
| 1777582841 | 32.78° C | 49% | 1009.6 hPa | 0 mm | - | 70 W/m² | - |
| 1777582538 | 32.78° C | 49% | 1009.5 hPa | 0 mm | - | 93 W/m² | - |
| 1777582233 | 32.22° C | 51% | 1009.6 hPa | 0 mm | - | 102 W/m² | - |
| 1777581931 | 32.22° C | 48% | 1009.7 hPa | 0 mm | - | 114 W/m² | - |
| 1777581626 | 32.22° C | 50% | 1010 hPa | 0 mm | - | 78 W/m² | - |
* Rain latest hour (hover to see other rain measurements)
** Current wind speed in m/s (hover to see current wind gust speed)